Regional Weather Roundup
Issued by NWS Sioux Falls, SD

Home | Current Version | Previous Version | Text Only | Print | Product List | Glossary On
Versions: 1 2 3 4 5 6 7 8 9 10 11 12 13 14 15 16 17 18 19 20 21 22 23 24 25 26 27 28 29 30 31 32 33 34 35 36 37 38 39 40 41 42 43 44 45 46 47 48 49 50
000
ASUS43 KFSD 062202
RWRFSD

WEATHER ROUNDUP FOR SE SOUTH DAKOTA/SW MINNESOTA/NW IOWA
NATIONAL WEATHER SERVICE SIOUX FALLS SD
400 PM CST SAT FEB 06 2016

NOTE: "FAIR" INDICATES FEW OR NO CLOUDS BELOW 12,000 FEET WITH NO
SIGNIFICANT WEATHER AND OR OBSTRUCTIONS TO VISIBILITY.


SDZ038>040-050-052>070-062300-
SOUTHEAST SOUTH DAKOTA

CITY           SKY/WX    TMP DP  RH WIND       PRES   REMARKS
BROOKINGS      CLOUDY    35  28  75 S13       29.84F WCI  26
CHAMBERLAIN    NOT AVBL
HURON          CLOUDY    39  31  72 S14       29.81F
MADISON        FAIR      34  34 100 SW13      29.85F WCI  25
MITCHELL       MOSUNNY   42  33  70 S12       29.85F
SIOUX FALLS    CLOUDY    35  25  66 SW13      29.90F WCI  26
WINNER         FAIR      45  30  55 SW10      29.86R
YANKTON        CLOUDY    39  25  56 SW13      29.91F
$$

MNZ071-072-080-081-089-090-097-098-062300-
SOUTHWEST MINNESOTA

CITY           SKY/WX    TMP DP  RH WIND       PRES   REMARKS
FAIRMONT       CLOUDY    34  27  75 S21       29.93F WCI  22
JACKSON        MOSUNNY   36  27  69 S18G25    29.93F
LUVERNE        CLOUDY    34  30  86 S10       29.91F WCI  26
MARSHALL       CLOUDY    37  25  61 SW20      29.83S
MONTEVIDEO     CLOUDY    37  28  70 W9        29.83S
PIPESTONE        N/A     36  21  55 SW18      29.86F
REDWOOD FALLS  CLOUDY    36  26  67 SW22      29.86F
TRACY          CLOUDY    34  27  77 SW22      29.85F WCI  22
WINDOM         MOSUNNY   36  27  69 S21       29.89F
WORTHINGTON    CLOUDY    34  25  69 S22G29    29.90F WCI  22
$$

IAZ001>003-012>014-020>022-031-032-NEZ013-014-SDZ071-062300-
NORTHWEST IOWA

CITY           SKY/WX    TMP DP  RH WIND       PRES   REMARKS
ESTHERVILLE    CLOUDY    34  27  75 S18       29.95F WCI  23
SIOUX CITY     CLOUDY    39  26  59 S14       29.99F
SPENCER        CLOUDY    35  27  72 S17       29.95F WCI  25
STORM LAKE     CLOUDY    34  30  86 S21       29.99F WCI  22
$$

ABBREVIATIONS USED IN REMARKS
   TC - TEMPERATURE IN CELSIUS
  WCI - WIND CHILL INDEX
   HX - HEAT INDEX
  VSB - VISIBILITY




USA.gov is the U.S. government's official web portal to all federal, state and local government web resources and services.